Wilmington, NC

1:06 PM EDT on July 28, 2017 (GMT -0400)
Wilmington International

Weather History for KILM - April, 2012

Change the Weather History Date:

Friday, April 6, 2012

  Actual Average Record
Temperature  
Mean Temperature 50 °F 61 °F  
Max Temperature 60 °F 72 °F 88 °F (1967)
Min Temperature 40 °F 49 °F 31 °F (2004)
Degree Days  
Heating Degree Days 15 6  
Month to date heating degree days 29 39  
Since 1 July heating degree days 1743 2291  
Cooling Degree Days 0 1  
Month to date cooling degree days 11 6  
Year to date cooling degree days 86 27  
Growing Degree Days 2 (Base 50)    
Moisture  
Dew Point 43 °F    
Average Humidity 70    
Maximum Humidity 93    
Minimum Humidity 47    
Precipitation  
Precipitation 0.35 in 0.10 in 1.96 in (1958)
Month to date precipitation 0.37 0.62  
Year to date precipitation 7.88 12.21  
Snow  
Snow 0.00 in 0.00 in - ()
Month to date snowfall 0.0 0.0  
Since 1 July snowfall T 1.7  
Snow Depth -    
Sea Level Pressure  
Sea Level Pressure 29.87 in    
Wind  
Wind Speed 9 mph (NNE)    
Max Wind Speed 24 mph    
Max Gust Speed 32 mph    
Visibility 9 miles    
Events Rain    
T = Trace of Precipitation, MM = Missing Value Source: NWS Daily Summary

Daily Weather History Graph

Daily Weather History Graph

Search for Another Location

Airport or City:

Trip Planner

Search our weather history database for the weather conditions in past years. The results will help you decide how hot, cold, wet, or windy it might be!

Date:

Astronomy

Apr. 06, 2012 Rise Set
Actual Time 6:51 AM EDT 7:36 PM EDT
Civil Twilight 6:26 AM EDT 8:02 PM EDT
Nautical Twilight 5:56 AM EDT 8:32 PM EDT
Astronomical Twilight 5:25 AM EDT 9:03 PM EDT
Moon 7:50 PM EDT (4/6) 6:23 AM EDT (4/6)
Length of Visible Light 13h 36m
Length of Day
12h 45m
Full, 100% of the Moon is Illuminated
Apr 6
Full
Apr 6
Full
Apr 13
Last Quarter
Apr 21
New
Apr 29
First Quarter

Hourly Weather History & Observations

Time (EDT) Temp. Windchill Dew Point Humidity Pressure Visibility Wind Dir Wind Speed Gust Speed Precip Events Conditions
12:53 AM 50.0 °F - 45.0 °F 83% 29.78 in 9.0 mi NNE 13.8 mph - 0.01 in Rain Light Rain
1:53 AM 48.0 °F - 45.0 °F 89% 29.75 in 10.0 mi NE 13.8 mph - 0.02 in Rain Light Rain
2:40 AM 48.2 °F - 44.6 °F 87% 29.75 in 10.0 mi North 11.5 mph - 0.00 in   Overcast
2:53 AM 48.0 °F - 45.0 °F 89% 29.75 in 10.0 mi NNE 10.4 mph - 0.00 in   Overcast
3:53 AM 48.0 °F - 44.1 °F 86% 29.75 in 10.0 mi NNE 10.4 mph - N/A   Overcast
4:53 AM 46.9 °F - 44.1 °F 90% 29.73 in 10.0 mi NNE 13.8 mph - 0.00 in Rain Light Rain
5:53 AM 46.9 °F - 43.0 °F 86% 29.75 in 10.0 mi NNE 10.4 mph - 0.00 in   Overcast
6:53 AM 46.0 °F 39.9 °F 43.0 °F 89% 29.78 in 5.0 mi NNE 13.8 mph - 0.09 in Rain Rain
7:06 AM 46.4 °F 40.4 °F 44.6 °F 93% 29.78 in 5.0 mi North 13.8 mph 20.7 mph 0.05 in Rain Rain
7:28 AM 46.4 °F 40.1 °F 44.6 °F 93% 29.79 in 7.0 mi NNE 15.0 mph 21.9 mph 0.10 in Rain Light Rain
7:53 AM 46.9 °F - 44.1 °F 90% 29.81 in 10.0 mi NNE 15.0 mph 25.3 mph 0.11 in Rain Light Rain
8:05 AM 46.4 °F 39.0 °F 44.6 °F 93% 29.81 in 10.0 mi NNE 19.6 mph 25.3 mph 0.00 in Rain Light Rain
8:29 AM 46.4 °F 39.2 °F 42.8 °F 87% 29.82 in 10.0 mi NNE 18.4 mph 25.3 mph 0.00 in   Overcast
8:53 AM 46.9 °F - 44.1 °F 90% 29.84 in 10.0 mi North 12.7 mph - 0.00 in Rain Light Rain
9:34 AM 46.4 °F 40.4 °F 44.6 °F 93% 29.84 in 8.0 mi NNE 13.8 mph 23.0 mph 0.02 in Rain Light Rain
9:53 AM 46.4 °F 40.7 °F 44.6 °F 93% 29.85 in 9.0 mi North 12.7 mph - N/A Rain Light Rain
10:07 AM 48.2 °F - 44.6 °F 87% 29.85 in 10.0 mi North 11.5 mph - 0.00 in Rain Light Rain
10:19 AM 48.2 °F - 44.6 °F 87% 29.85 in 10.0 mi NNE 16.1 mph - 0.00 in Rain Light Rain
10:53 AM 48.9 °F - 44.1 °F 83% 29.86 in 10.0 mi NNE 15.0 mph 25.3 mph 0.00 in   Overcast
11:11 AM 48.2 °F - 44.6 °F 87% 29.87 in 4.0 mi NNE 17.3 mph 28.8 mph 0.00 in Rain Light Rain
11:19 AM 46.4 °F 39.5 °F 44.6 °F 93% 29.88 in 1.8 mi NNE 17.3 mph 24.2 mph 0.02 in Rain Rain
11:29 AM 46.4 °F 41.1 °F 44.6 °F 93% 29.88 in 1.2 mi NNE 11.5 mph 23.0 mph 0.06 in Rain Heavy Rain
11:38 AM 46.4 °F 39.8 °F 44.6 °F 93% 29.88 in 2.0 mi NNE 16.1 mph 20.7 mph 0.09 in Rain Rain
11:53 AM 48.0 °F - 45.0 °F 89% 29.88 in 7.0 mi NNE 12.7 mph 21.9 mph 0.10 in Rain Light Rain
12:53 PM 48.9 °F - 44.1 °F 83% 29.90 in 10.0 mi NNE 12.7 mph 19.6 mph 0.00 in Rain Light Rain
1:43 PM 50.0 °F - 46.4 °F 87% 29.91 in 10.0 mi North 10.4 mph 20.7 mph 0.01 in Rain Light Rain
1:53 PM 50.0 °F - 46.9 °F 89% 29.91 in 10.0 mi North 8.1 mph - 0.01 in Rain Light Rain
2:51 PM 51.8 °F - 46.4 °F 82% 29.90 in 10.0 mi North 6.9 mph - 0.00 in   Overcast
2:53 PM 51.1 °F - 46.9 °F 86% 29.91 in 10.0 mi North 8.1 mph - 0.00 in Rain Light Rain
3:53 PM 55.9 °F - 46.0 °F 69% 29.91 in 10.0 mi North 12.7 mph 25.3 mph 0.00 in   Mostly Cloudy
4:53 PM 59.0 °F - 39.0 °F 48% 29.92 in 10.0 mi NNE 16.1 mph 21.9 mph N/A   Clear
5:53 PM 59.0 °F - 39.0 °F 48% 29.93 in 10.0 mi NNE 9.2 mph - N/A   Clear
6:53 PM 57.9 °F - 41.0 °F 53% 29.94 in 10.0 mi North 5.8 mph - N/A   Clear
7:53 PM 54.0 °F - 39.0 °F 57% 29.97 in 10.0 mi North 6.9 mph - N/A   Clear
8:53 PM 52.0 °F - 37.0 °F 57% 30.00 in 10.0 mi North 3.5 mph - N/A   Clear
9:53 PM 48.9 °F - 37.9 °F 66% 30.03 in 10.0 mi North 3.5 mph - N/A   Clear
10:53 PM 46.0 °F - 37.9 °F 73% 30.05 in 10.0 mi Calm Calm - N/A   Clear
11:53 PM 42.1 °F - 39.0 °F 89% 30.06 in 10.0 mi Calm Calm - N/A   Clear